Tracking 29892 objects as of 21-Nov-2024
HD Live streaming from Space Station
objects crossing your sky now

METEOR 2-5 DEB

Track METEOR 2-5 DEB now!
10-day predictions


NORAD ID: 36911
Int'l Code: 1979-095BC
Perigee: 782.1 km
Apogee: 799.3 km
Inclination: 81.2 °
Period: 100.5 minutes
Semi major axis: 7161 km
RCS: 0.0173 m2 (small)
Launch date: October 31, 1979
Source: Commonwealth of Independent States (former USSR) (CIS)
Launch site: PLESETSK MISSILE AND SPACE COMPLEX (PKMTR)

Note: This is SATELLITE DEBRIS
Your satellite tracking list
Your tracking list is empty




NASA's NSSDC Master Catalog

Two Line Element Set (TLE):
1 36911U 79095BC  24318.80065728  .00011069  00000-0  40790-2 0  9993
2 36911  81.1818 345.3811 0012004 282.9499  77.0343 14.32441538587418
Source of the keplerian elements: AFSPC